Home   Weather   Midway   Past weeks

Flag for US Minor Outlying Islands Past Weather in Midway, US Minor Outlying Islands — Yesterday and Last 2 Weeks

Now
79 °F

Mostly cloudy.


Feels Like: 83 °F
Forecast: 76 / 80 °F
Wind: 10 mph from Southwest

Location: Midway Island Naval Air Facility

Current Time: Aug 30, 2016 at 2:11:29 AM

Latest Report: Aug 30, 2016 at 1:56 AM


Visibility: 10 mi

Pressure: 29.95 "Hg

Humidity: 90%

Dew Point: 76 °F

Location of MidwayLocation

Past Weather in Midway — Graph

°F

Midway Temperature Yesterday

Maximum temperature yesterday: 83 °F (at 12:56 PM)
Minimum temperature yesterday: 75 °F (at 3:56 PM)
Average temperature yesterday: 78 °F

High & Low Weather Summary for the Past Weeks

 TemperatureHumidityPressure
High86 °F (Aug 20, 1:56 PM)97% (Aug 21, 7:56 AM)30.14 "Hg (Aug 21, 7:56 AM)
Low72 °F (Aug 25, 12:56 AM)61% (Aug 24, 1:56 PM)29.87 "Hg (Aug 24, 3:56 AM)
Average78 °F80%30.02 "Hg
* Reported Aug 15 12:11 AM — Aug 30 12:56 AM, Midway, Weather by CustomWeather, © 2016

Note: Actual official high and low records may vary slightly from our data, if they occured in-between our weather recording intervals... More about our weather records

Advertising

Midway Weather History for the Previous 24 Hours

Scroll right to see more
 ConditionsComfort  
Time TempWeatherWind HumidityBarometerVisibility
12:56 AM
Tue, Aug 30
79 °FPassing clouds.12 mph84%29.97 "Hg10 mi
11:56 PM
Mon, Aug 29
79 °FPassing clouds.9 mph90%29.97 "Hg10 mi
10:56 PM78 °FPassing clouds.12 mph90%29.96 "Hg10 mi
9:56 PM78 °FLight rain. Partly cloudy.13 mph93%29.98 "Hg8 mi
9:05 PM79 °FPassing clouds.6 mph89%29.98 "Hg10 mi
7:56 PM77 °FClear.8 mph94%29.96 "Hg10 mi
6:56 PM77 °FSunny.8 mph90%29.95 "Hg10 mi
5:56 PM76 °FScattered clouds.7 mph94%29.93 "Hg10 mi
4:56 PM76 °FPartly sunny.No wind94%29.93 "Hg10 mi
3:56 PM75 °FRain. Fog.5 mph96%29.94 "Hg6 mi
3:29 PM75 °FRain. Fog.12 mph94%29.94 "Hg3 mi
3:17 PM75 °FHeavy rain. Fog.15 mph94%29.94 "Hg1 mi
3:05 PM77 °FHeavy rain. Fog.17 mph94%29.94 "Hg2 mi
2:43 PM79 °FHeavy rain. Fog.9 mph89%29.94 "Hg2 mi
1:56 PM79 °FLight rain. Mostly cloudy.12 mph94%29.93 "Hg10 mi
1:45 PM79 °FHeavy rain. Fog.5 mph89%29.94 "Hg2 mi
12:56 PM83 °FScattered clouds.10 mph77%29.95 "Hg10 mi
11:56 AM82 °FMostly cloudy.6 mph85%29.96 "Hg10 mi
11:28 AM81 °FPartly sunny.5 mph89%29.98 "Hg10 mi
10:56 AM80 °FPartly sunny.5 mph87%29.98 "Hg10 mi
9:56 AM80 °FOvercast.6 mph87%29.97 "Hg10 mi
9:19 AM81 °FCloudy.3 mph84%29.98 "Hg10 mi
8:56 AM81 °FMostly cloudy.3 mph85%29.98 "Hg10 mi
8:21 AM81 °FScattered clouds.3 mph84%29.97 "Hg10 mi
7:56 AM78 °FPartly sunny.No wind90%29.96 "Hg10 mi
7:18 AM79 °FScattered clouds.3 mph89%29.96 "Hg10 mi
6:56 AM78 °FPartly sunny.5 mph90%29.95 "Hg10 mi
5:56 AM78 °FLight rain. Partly cloudy.7 mph90%29.93 "Hg8 mi
5:31 AM79 °FPartly cloudy.9 mph84%29.94 "Hg10 mi
4:56 AM78 °FPassing clouds.6 mph90%29.93 "Hg10 mi
4:43 AM79 °FPartly cloudy.7 mph89%29.93 "Hg10 mi
3:56 AM78 °FPassing clouds.8 mph93%29.93 "Hg10 mi
2:56 AM78 °FOvercast.7 mph90%29.93 "Hg10 mi
2:35 AM79 °FMostly cloudy.5 mph84%29.94 "Hg10 mi
Weather by CustomWeather, © 2016

See weather overviewHow to use our weather pages